Regional Weather Roundup
Issued by NWS

Home | Current Version | Previous Version | Text Only | Print | Product List | Glossary Off
Versions: 1 2 3 4 5 6 7 8 9 10 11 12 13 14 15 16 17 18 19 20 21 22 23 24 25 26 27 28 29 30 31 32 33 34 35 36 37 38 39 40 41 42 43 44 45 46 47 48 49 50

046
ASUS43 KMKX 270559
RWRWI

WISCONSIN REGIONAL WEATHER ROUNDUP
NATIONAL WEATHER SERVICE MILWAUKEE/SULLIVAN WI
100 AM CDT FRI APR 27 2018

NOTE: "FAIR" INDICATES FEW OR NO CLOUDS BELOW 12,000 FEET WITH NO
SIGNIFICANT WEATHER AND/OR OBSTRUCTIONS TO VISIBILITY.

WIZ001-002-006>008-014>016-023>028-270700-
NORTHWEST WISCONSIN

CITY           SKY/WX    TMP DP  RH WIND       PRES   REMARKS
SUPERIOR ARPT  FAIR      31  30  95 CALM      29.87F
ASHLAND        FAIR      28  27  96 CALM      29.88F
6HR MIN TEMP:  27; 6HR MAX TEMP:  50;

HAYWARD        FAIR      29  25  85 N3        29.88F
6HR MIN TEMP:  29; 6HR MAX TEMP:  54;

SIREN          FAIR      37  23  58 CALM      29.88F
CUMBERLAND     FAIR      37  25  60 NW5       29.89S WCI  34
RICE LAKE      FAIR      34  31  89 CALM      29.91S
CHETEK         FAIR      34  31  88 CALM      29.90S
LADYSMITH      FAIR      33  31  92 CALM      29.90S
6HR MIN TEMP:  33; 6HR MAX TEMP:  53;

EAU CLAIRE     NOT AVBL
MENOMONIE      FAIR      46  30  52 CALM      29.90S
6HR MIN TEMP:  42; 6HR MAX TEMP:  61;

NEW RICHMOND   FAIR      40  24  52 CALM      29.91S
OSCEOLA        FAIR      36  26  67 SW5       29.94S WCI  32
$$

WIZ003>005-009-010-017-018-270700-
NORTH CENTRAL WISCONSIN

CITY           SKY/WX    TMP DP  RH WIND       PRES   REMARKS
MANITOWISH WTR   N/A     27  27 100 CALM      29.86S FOG
ARBOR VITAE    FAIR      31  29  94 CALM      29.86F
WOODRUFF       FAIR      31  29  94 CALM      29.86F
RHINELANDER    FAIR      29  28  96 W3        29.86F FOG
6HR MIN TEMP:  29; 6HR MAX TEMP:  45;

EAGLE RIVER    FAIR      28  28 100 CALM      29.86S FOG
6HR MIN TEMP:  28; 6HR MAX TEMP:  42;

LAND O LAKES   FAIR      26  26  99 CALM      29.87F
6HR MIN TEMP:  26; 6HR MAX TEMP:  42;

PHILLIPS       FAIR      28  27  97 CALM      29.87S
6HR MIN TEMP:  27; 6HR MAX TEMP:  47;

TOMAHAWK       FAIR      27  26  94 CALM      29.88F
MEDFORD        FAIR      33  30  92 CALM      29.87S
MERRILL        FAIR      31  30  97 CALM      29.88S
$$

WIZ029-030-035-036-043>047-270700-
CENTRAL WISCONSIN

CITY           SKY/WX    TMP DP  RH WIND       PRES   REMARKS
WAUSAU         FAIR      38  33  82 NW6       29.85F WCI  33
6HR MIN TEMP:  38; 6HR MAX TEMP:  57; 6HR PCP: TRACE;

MOSINEE        FAIR      37  32  81 N5        29.87F WCI  34
MARSHFIELD     FAIR      39  33  79 NE6       29.86F WCI  35
6HR MIN TEMP:  39; 6HR MAX TEMP:  59;

STEVENS POINT  FAIR      39  32  77 N3        29.87F
WAUPACA        MOCLDY    46  36  66 N5        29.87R
6HR MIN TEMP:  46; 6HR MAX TEMP:  67;

WAUTOMA        CLOUDY    45  34  65 N9        29.87R
6HR MIN TEMP:  45; 6HR MAX TEMP:  66;

WISC RAPIDS    FAIR      41  30  65 N6        29.88S
6HR MIN TEMP:  41; 6HR MAX TEMP:  65; 6HR PCP: TRACE;

CAMP DOUGLAS   FAIR      42  33  69 NW3       29.88R
6HR MIN TEMP:  42; 6HR MAX TEMP:  64;

$$

WIZ011>013-019>022-031-037>040-048>050-270700-
NORTHEAST WISCONSIN

CITY           SKY/WX    TMP DP  RH WIND       PRES   REMARKS
ANTIGO         FAIR      33  32  97 CALM      29.86S
SHAWANO        FAIR      42  35  77 N10       29.87S
6HR MIN TEMP:  42; 6HR MAX TEMP:  66;

OCONTO         CLOUDY    41  34  75 N13G23    29.86R
STURGEON BAY   LGT RAIN  38  34  85 N12       29.86R WCI  30
6HR MIN TEMP:  38; 6HR MAX TEMP:  50; 6HR PCP: TRACE;

GREEN BAY      CLOUDY    41  36  82 NE13      29.86R
6HR MIN TEMP:  41; 6HR MAX TEMP:  63; 6HR PCP:  0.02;

MANITOWOC      MOCLDY    43  34  70 N12       29.82S
6HR MIN TEMP:  42; 6HR MAX TEMP:  49; 6HR PCP: TRACE;

APPLETON       CLOUDY    43  34  70 NE6       29.83R
CLINTONVILLE   MOCLDY    44  35  71 N5        29.87R
6HR MIN TEMP:  44; 6HR MAX TEMP:  65;

OSHKOSH        CLOUDY    45  36  70 N13       29.84R
6HR MIN TEMP:  45; 6HR MAX TEMP:  65; 6HR PCP: TRACE;

$$

WIZ032>034-041-042-053>061-270700-
SOUTHWEST WISCONSIN

CITY           SKY/WX    TMP DP  RH WIND       PRES   REMARKS
LA CROSSE      FAIR      50  34  54 N6        29.89S
6HR MIN TEMP:  50; 6HR MAX TEMP:  65;

SPARTA         FAIR      41  33  73 CALM      29.91R
VIROQUA        FAIR      43  36  74 NE5       29.89R
BOSCOBEL       FAIR      52  35  52 N8        29.88R
6HR MIN TEMP:  52; 6HR MAX TEMP:  69;

PRAIRIE DU CHI FAIR      53  31  42 NW6       29.86R
PLATTEVILLE    FAIR      51  38  61 N12       29.84R
$$

WIZ056-057-062-063-064-067-068-270700-
SOUTH CENTRAL WISCONSIN

CITY           SKY/WX    TMP DP  RH WIND       PRES   REMARKS
REEDSBURG      FAIR      47  32  56 N8        29.87R
6HR MIN TEMP:  47; 6HR MAX TEMP:  66;

BARABOO/DELLS  CLOUDY    49  32  52 N8        29.86R
LONE ROCK      NOT AVBL
MINERAL POINT  FAIR      52  34  50 N24G31    29.84R
MADISON        MOCLDY    50  36  58 N13       29.83R
6HR MIN TEMP:  49; 6HR MAX TEMP:  66;

MIDDLETON      MOCLDY    51  37  57 N17G23    29.84R
WATERTOWN      FAIR      51  38  61 N13G18    29.80R
MONROE         FAIR      54  36  50 N16G23    29.80R
JANESVILLE     FAIR      50  34  53 NW10      29.77S
$$

WIZ051-052-058>065-066-070>072-270700-
SOUTHEAST WISCONSIN

CITY           SKY/WX    TMP DP  RH WIND       PRES   REMARKS
MILWAUKEE      FAIR      52  31  44 NW6       29.75S
6HR MIN TEMP:  50; 6HR MAX TEMP:  58;

WAUKESHA       FAIR      52  32  46 NW7       29.78R
MILWAUKEE/TIMM FAIR      46  30  53 W7        29.77R
RACINE         FAIR      48  31  51 SW6       29.75F
6HR MIN TEMP:  46; 6HR MAX TEMP:  53;

BURLINGTON     FAIR      49  32  52 SW5       29.75F
KENOSHA        MOCLDY    52  31  44 S8        29.74F
6HR MIN TEMP:  48; 6HR MAX TEMP:  58;

FOND DU LAC    LGT RAIN  45  35  68 N18       29.83R
6HR MIN TEMP:  45; 6HR MAX TEMP:  64; 6HR PCP: TRACE;

SHEBOYGAN      MOCLDY    43  36  76 NE16      29.80R
6HR MIN TEMP:  42; 6HR MAX TEMP:  54;

WEST BEND      FAIR      46  34  61 NE15G25   29.80R
JUNEAU         MOCLDY    48  35  60 N16G23    29.82R
$$

LSZ147-162-270700-
LAKE SUPERIOR

STATION/POSITION TIME  TEMP    WIND        PRES    WAVE
                       AIR SEA DIR/SP/G            HT/PER
                 (UTC) (F)     (DEG/KT/KT) (MB)    (FT/S)
DEVILS ISLAND    0500   41     240/  4/  4 1012.5F
SAXON HARBOR     0530   31     200/  3/  4 1011.5F
$$

LMZ867-665-643>646-270700-
LAKE MICHIGAN

STATION/POSITION TIME  TEMP    WIND        PRES    WAVE
                       AIR SEA DIR/SP/G            HT/PER
                 (UTC) (F)     (DEG/KT/KT) (MB)    (FT/S)
NORTHPORT PIER   0540   36                 1011.2R
KEWAUNEE LAKESHO 0530   42     350/  7/ 12 1009.7R
SHEBOYGAN LAKESH 0500   41      10/ 27/ 31 1009.1R
PORT WASHINGTON  0530   45     360/  9/ 18 1009.8R
MILWAUKEE LAKESH 0530   53     260/  9/ 10   N/A
KENOSHA   LAKESH 0500   47                 1008.1
$$

TC  - TEMPERATURE IN CELSIUS
VSB - VISIBILITY IN STATUTE MILES
WCI - WIND CHILL INDEX
HX  - HEAT INDEX





USA.gov is the U.S. government's official web portal to all federal, state and local government web resources and services.